[[{"header":{"parameterUnit":"m.s-1","parameterCategory":1,"la1":30.2991,"la2":30.254,"lo1":-89.0895,"lo2":-89.0444,"dy":0.0017,"dx":0.0017,"nx":28,"ny":28,"refTime":"2026-02-11T03:00:00:Z","depth":0,"parameterNumber":2,"parameterNumberName":"U-component_of_WINDS"},"data":[0,0,0,0,0,0,0,0,0,0,0,0,0,0,0,0,0,0,0,0,0,0,0,0,0,0,0,0,0,0,0,0,0,0,0,0,0,0,0,0,0,0,0,0,0,0,0,0,0,0,0,0,0,0,0,0,0,0,1.5892,1.5893,0,1.5931,1.5932,1.5932,1.5952,1.5952,1.5952,1.5952,1.5992,1.5993,1.5994,0,0,0,0,0,0,0,0,0,0,0,0,0,1.5837,1.5838,1.5892,1.5893,1.5893,1.5931,1.5932,1.5932,1.5952,1.5952,1.5952,1.5952,1.5992,1.5993,1.5994,0,0,0,0,0,0,0,0,0,0,0,0,0,1.5867,1.5839,1.5892,1.5908,1.5909,1.5931,1.5932,1.5932,1.5952,1.5952,1.5952,1.5952,1.5992,1.5993,1.5995,1.6004,0,0,1.5999,1.6,0,0,0,0,0,0,0,0,1.5866,1.5869,1.5905,1.5906,1.5909,1.5937,1.5927,1.5956,1.5952,1.5936,1.5952,1.5952,1.5974,1.5977,1.5984,1.6006,1.6008,1.6,1.6001,1.6001,1.6002,0,0,0,0,0,0,0,1.5863,1.5868,1.5908,1.5905,1.5908,1.5913,1.5918,1.5933,1.5954,1.5937,1.5939,1.5943,1.5975,1.5982,1.5985,1.6008,1.6,1.6001,1.6002,1.6003,1.6042,1.6043,0,0,0,0,0,0,1.5859,1.5866,1.5906,1.5909,1.5887,1.5914,1.5919,1.5928,1.5954,1.5958,1.5943,1.5944,1.598,1.5983,1.5987,1.6001,1.6001,1.6003,1.6004,1.6042,1.6043,1.6043,0,0,0,0,0,0,1.5857,1.5862,1.5905,1.5888,1.5894,1.5915,1.5925,1.5928,1.5936,1.5958,1.5962,1.5947,1.598,1.5984,1.6,1.6002,1.6003,1.6005,1.6042,1.6042,1.6043,1.6028,0,0,0,0,0,0,1.5856,1.5861,1.5864,1.5888,1.5894,1.5916,1.5925,1.5929,1.5939,1.594,1.5963,1.5967,1.598,1.5998,1.6002,1.6005,1.6006,1.6042,1.6042,1.6043,1.6028,1.6028,1.6027,0,0,0,0,0,1.5854,1.5858,1.5864,1.5869,1.5898,1.5917,1.5921,1.5936,1.5939,1.5942,1.5957,1.5966,1.6002,1.5999,1.6004,1.6007,1.6042,1.6042,1.6042,1.6029,1.6028,1.6027,0,0,0,0,0,0,1.5834,1.5861,1.5868,1.5881,1.5896,1.592,1.5925,1.5934,1.5949,1.595,1.5969,1.5974,1.5988,1.5999,1.5996,1.6019,1.6023,1.6024,1.6011,1.601,1.601,1.6006,1.6007,0,0,0,0,0,1.5831,1.5843,1.5867,1.5875,1.5883,1.5903,1.5911,1.5922,1.5939,1.5945,1.5961,1.5978,1.5993,1.6002,1.6017,1.6031,1.6037,1.6036,1.6035,1.6034,1.6035,1.6045,1.6045,1.6043,1.6043,1.6043,0,0,1.5825,1.5842,1.5848,1.5872,1.5885,1.5898,1.5908,1.592,1.5931,1.5947,1.5963,1.5976,1.5996,1.6011,1.6018,1.6021,1.6037,1.6035,1.6034,1.6035,1.6045,1.6046,1.6046,1.6044,1.6044,1.6044,0,0,1.5821,1.5834,1.5843,1.5857,1.5878,1.5891,1.5894,1.5917,1.5926,1.5942,1.5956,1.5969,1.5994,1.6008,1.6019,1.6024,1.6033,1.6028,1.6024,1.6034,1.6034,1.6034,1.6037,1.6038,1.6029,1.6029,1.6029,0,1.5811,1.583,1.5847,1.586,1.5871,1.5887,1.5898,1.5911,1.5935,1.5942,1.5945,1.5979,1.5993,1.6013,1.6014,1.6022,1.6027,1.6025,1.6033,1.6033,1.6034,1.6036,1.6037,1.6028,1.6028,1.6028,1.6028,0,1.5817,1.5831,1.5836,1.586,1.5872,1.5883,1.5903,1.5913,1.5924,1.5938,1.5956,1.5974,1.5994,1.6,1.601,1.6022,1.6023,1.6029,1.6033,1.6033,1.6036,1.6037,1.6027,1.6027,1.6028,1.6028,0,0,1.5799,1.5834,1.5836,1.5848,1.5873,1.5884,1.5898,1.5918,1.5927,1.5944,1.5957,1.5979,1.5986,1.5998,1.601,1.6019,1.6023,1.6024,1.6025,1.6024,1.6039,1.6035,1.6035,1.603,1.603,1.603,1.6038,0,1.5799,1.5823,1.584,1.5858,1.5871,1.5889,1.5901,1.5919,1.5933,1.5948,1.5964,1.598,1.5986,1.5994,1.6003,1.602,1.6026,1.602,1.6043,1.6043,1.6037,1.6037,1.6031,1.6037,1.6039,1.6039,1.6039,0,1.58,1.5818,1.5837,1.5863,1.587,1.588,1.5901,1.5914,1.5936,1.5946,1.5961,1.5974,1.5991,1.5994,1.6018,1.6014,1.6025,1.6035,1.6035,1.6038,1.6041,1.6039,1.6039,1.604,1.6041,1.6041,1.6041,0,1.5786,1.5815,1.583,1.584,1.587,1.5878,1.5891,1.5912,1.5924,1.5943,1.5952,1.5972,1.5983,1.6,1.6019,1.602,1.6042,1.6047,1.6052,1.6051,1.6054,1.6054,1.6056,1.6061,1.6061,1.6061,1.6061,0,1.5783,1.5795,1.5825,1.5834,1.5848,1.5869,1.5883,1.5897,1.5917,1.5931,1.5948,1.5961,1.5986,1.6002,1.6017,1.6036,1.6041,1.605,1.6054,1.6049,1.6047,1.6055,1.6055,1.6062,1.6062,1.6062,1.6061,0,1.5769,1.5789,1.5808,1.5836,1.5844,1.5853,1.5878,1.5889,1.5905,1.5923,1.5928,1.5954,1.5974,1.5996,1.6023,1.6034,1.6052,1.6057,1.6045,1.6047,1.6051,1.605,1.6058,1.606,1.6064,1.6064,1.6064,0,1.5766,1.5775,1.5805,1.5816,1.5829,1.5845,1.5858,1.588,1.5893,1.592,1.5928,1.595,1.5968,1.6001,1.6022,1.6044,1.6051,1.6052,1.6054,1.6049,1.6051,1.6051,1.6052,1.6051,1.6051,1.6051,1.605,0,1.5758,1.5768,1.5785,1.5807,1.5822,1.584,1.5859,1.5867,1.5893,1.5907,1.5928,1.5943,1.5973,1.5995,1.602,1.6035,1.6048,1.605,1.6052,1.6046,1.6039,1.6044,1.6043,1.6049,1.6049,1.605,1.605,1.605,1.5749,1.5759,1.5782,1.5802,1.5819,1.5837,1.5849,1.5868,1.5886,1.5911,1.5924,1.5946,1.597,1.6005,1.602,1.6039,1.6042,1.6045,1.6046,1.6047,1.6046,1.6037,1.6043,1.6044,1.6044,1.6044,1.6044,0,1.5742,1.5759,1.5777,1.5803,1.5819,1.5831,1.5853,1.5866,1.5885,1.5906,1.5925,1.5951,1.5974,1.5998,1.6023,1.6033,1.604,1.6039,1.6038,1.6041,1.6041,1.6036,1.6033,1.6033,1.6033,1.6033,1.6033,1.6033,1.5741,1.5759,1.5772,1.58,1.5817,1.5838,1.585,1.5868,1.5885,1.5913,1.5932,1.5948,1.5972,1.5999,1.6021,1.6028,1.6036,1.6033,1.6042,1.604,1.6041,1.6042,1.6038,1.6035,1.6035,1.6041,1.6041,1.6041]},{"header":{"parameterUnit":"m.s-1","parameterCategory":1,"la1":30.2991,"la2":30.254,"lo1":-89.0895,"lo2":-89.0444,"dy":0.0017,"dx":0.0017,"nx":28,"ny":28,"refTime":"2026-02-11T03:00:00:Z","depth":0,"parameterNumber":3,"parameterNumberName":"V-component_of_WINDS"},"data":[0,0,0,0,0,0,0,0,0,0,0,0,0,0,0,0,0,0,0,0,0,0,0,0,0,0,0,0,0,0,0,0,0,0,0,0,0,0,0,0,0,0,0,0,0,0,0,0,0,0,0,0,0,0,0,0,0,0,0.0544,0.0544,0,0.0514,0.0514,0.0514,0.0503,0.0503,0.0503,0.0503,0.0471,0.047,0.0469,0,0,0,0,0,0,0,0,0,0,0,0,0,0.059,0.0589,0.0544,0.0544,0.0543,0.0514,0.0514,0.0513,0.0503,0.0503,0.0503,0.0503,0.0472,0.0471,0.0469,0,0,0,0,0,0,0,0,0,0,0,0,0,0.0566,0.0589,0.0544,0.0535,0.0534,0.0514,0.0514,0.0513,0.0503,0.0503,0.0503,0.0503,0.0472,0.0471,0.0469,0.0457,0,0,0.0465,0.0464,0,0,0,0,0,0,0,0,0.0567,0.0564,0.0537,0.0535,0.0534,0.0513,0.0518,0.0494,0.0503,0.0515,0.0503,0.0504,0.0485,0.0482,0.0476,0.0455,0.0454,0.0465,0.0464,0.0463,0.0463,0,0,0,0,0,0,0,0.0569,0.0566,0.0532,0.0536,0.0535,0.0531,0.0528,0.0514,0.0499,0.0514,0.0513,0.0509,0.0484,0.0478,0.0475,0.0454,0.0465,0.0463,0.0463,0.0462,0.0419,0.0419,0,0,0,0,0,0,0.0573,0.0567,0.0533,0.0531,0.0552,0.053,0.0527,0.0519,0.0499,0.0496,0.0509,0.0509,0.048,0.0477,0.0474,0.0458,0.0463,0.0462,0.0461,0.0419,0.0419,0.0419,0,0,0,0,0,0,0.0574,0.057,0.0534,0.0549,0.0544,0.0529,0.0521,0.0519,0.0512,0.0496,0.0493,0.0506,0.048,0.0476,0.0461,0.0456,0.0461,0.046,0.042,0.0419,0.0419,0.0425,0,0,0,0,0,0,0.0575,0.057,0.0566,0.0549,0.0544,0.0522,0.0521,0.0518,0.051,0.0509,0.0492,0.0489,0.048,0.0463,0.046,0.0454,0.0459,0.042,0.042,0.0419,0.0425,0.0425,0.0424,0,0,0,0,0,0.0577,0.0569,0.0566,0.0562,0.0538,0.0522,0.0519,0.0509,0.051,0.0505,0.0494,0.0489,0.0457,0.0462,0.0458,0.0452,0.042,0.042,0.0419,0.0425,0.0425,0.0424,0,0,0,0,0,0,0.0586,0.0567,0.0563,0.055,0.0538,0.0521,0.0514,0.0509,0.0497,0.0497,0.0485,0.0481,0.0466,0.0457,0.0463,0.0438,0.0439,0.0437,0.0444,0.0444,0.0444,0.0446,0.0458,0,0,0,0,0,0.0586,0.0575,0.0559,0.0549,0.0543,0.053,0.0522,0.0516,0.0503,0.0497,0.0486,0.0473,0.046,0.0451,0.0438,0.0423,0.0419,0.0417,0.0417,0.0417,0.0416,0.0406,0.0405,0.0417,0.0417,0.0417,0,0,0.0587,0.0575,0.0569,0.055,0.054,0.0528,0.0525,0.0514,0.0505,0.0496,0.048,0.0471,0.0456,0.044,0.0433,0.0433,0.0411,0.0416,0.0416,0.0415,0.0405,0.0404,0.0403,0.0416,0.0417,0.0417,0,0,0.0582,0.0572,0.0562,0.0552,0.0537,0.0528,0.0525,0.0509,0.0502,0.0487,0.0479,0.0468,0.0446,0.0435,0.0427,0.0416,0.0411,0.0412,0.0411,0.0401,0.04,0.0399,0.0394,0.0393,0.0411,0.0411,0.0411,0,0.0585,0.0568,0.0557,0.0546,0.0537,0.0528,0.0517,0.0508,0.0489,0.0483,0.0483,0.0454,0.0443,0.0424,0.0422,0.0415,0.0411,0.0414,0.0401,0.04,0.0399,0.0394,0.0393,0.0411,0.0411,0.0411,0.0411,0,0.0571,0.0559,0.0553,0.0535,0.0525,0.0514,0.0501,0.0493,0.0487,0.0477,0.0461,0.0447,0.0431,0.0426,0.042,0.0406,0.0406,0.0404,0.0404,0.0398,0.0394,0.0392,0.0411,0.0411,0.0411,0.0411,0,0,0.0572,0.0548,0.0546,0.0537,0.0519,0.0509,0.0497,0.0481,0.0473,0.046,0.0449,0.043,0.0427,0.0417,0.041,0.0401,0.0393,0.04,0.0399,0.0398,0.0375,0.0376,0.0374,0.0389,0.0389,0.0388,0.0376,0,0.0565,0.0543,0.0533,0.0515,0.0503,0.0494,0.0483,0.047,0.0461,0.0448,0.0438,0.0424,0.0422,0.0416,0.0407,0.0396,0.0388,0.0396,0.0377,0.0377,0.0381,0.0372,0.0374,0.0363,0.0374,0.0374,0.0373,0,0.0553,0.054,0.0521,0.0504,0.0498,0.0489,0.0472,0.0461,0.0446,0.0439,0.0428,0.042,0.0406,0.0407,0.0386,0.0392,0.0383,0.0376,0.0375,0.0373,0.0375,0.0369,0.0359,0.0357,0.0371,0.0371,0.0371,0,0.0555,0.0533,0.0518,0.0511,0.049,0.0483,0.0474,0.0459,0.045,0.0435,0.0429,0.0413,0.0404,0.0391,0.0379,0.0381,0.0358,0.0359,0.0352,0.0352,0.0348,0.0348,0.0336,0.0343,0.0343,0.0343,0.0343,0,0.0548,0.0536,0.0518,0.051,0.0496,0.0484,0.047,0.046,0.0447,0.0435,0.0426,0.0415,0.0399,0.0386,0.0376,0.0359,0.0356,0.0349,0.0347,0.035,0.0351,0.0344,0.0344,0.0342,0.0342,0.0343,0.0343,0,0.0547,0.0535,0.0519,0.05,0.0495,0.0486,0.0469,0.0459,0.0449,0.0434,0.043,0.0413,0.0397,0.0383,0.0362,0.0355,0.0337,0.0335,0.0343,0.0341,0.0335,0.0335,0.0318,0.0314,0.0324,0.0324,0.0324,0,0.0544,0.0535,0.0515,0.0506,0.0497,0.0484,0.0474,0.0461,0.0451,0.0432,0.0424,0.0407,0.0393,0.0367,0.0352,0.0335,0.0332,0.0327,0.0329,0.0332,0.0331,0.0331,0.033,0.0326,0.0326,0.0326,0.0326,0,0.0538,0.0532,0.0518,0.0502,0.0491,0.0478,0.0464,0.0458,0.0442,0.0431,0.0414,0.0403,0.038,0.0363,0.0344,0.0334,0.0327,0.0326,0.0323,0.0326,0.0331,0.0327,0.0341,0.0326,0.0326,0.0326,0.0326,0.0326,0.0535,0.0526,0.051,0.0495,0.0484,0.0471,0.046,0.0449,0.0435,0.0416,0.0408,0.0391,0.0374,0.0348,0.0337,0.0322,0.0322,0.0318,0.0317,0.0316,0.0316,0.0333,0.0319,0.0319,0.0319,0.0319,0.0319,0,0.0528,0.0517,0.0503,0.0485,0.0472,0.0467,0.0452,0.0441,0.0426,0.0411,0.0397,0.0377,0.036,0.0343,0.0325,0.0316,0.0312,0.0312,0.0312,0.0309,0.0318,0.0322,0.0315,0.0315,0.0315,0.0315,0.0315,0.0315,0.0523,0.0507,0.0499,0.0477,0.0466,0.0449,0.044,0.0428,0.0416,0.0394,0.0379,0.0369,0.0353,0.0333,0.0316,0.0312,0.0305,0.0305,0.03,0.0308,0.0309,0.031,0.0313,0.0304,0.0304,0.0292,0.0292,0.0292]}]]